[[{"header":{"parameterUnit":"m.s-1","parameterCategory":2,"la1":30.2991,"la2":30.254,"lo1":-89.0895,"lo2":-89.0444,"dy":0.0017,"dx":0.0017,"nx":28,"ny":28,"refTime":"2024-04-17T03:00:00:Z","depth":"0","parameterNumber":2,"parameterNumberName":"U-component_of_CURRENTS"},"data":[0,0,0,0,0,0,0,0,0,0,0,0,0,0,0,0,0,0,0,0,0,0,0,0,0,0,0,0,0,0,0,0,0,0,0,0,0,0,0,0,0,0,0,0,0,0,0,0,0,0,0,0,0,0,0,0,0,0,0.1577,0.1578,0,0.1602,0.1602,0.1602,0.1602,0.1601,0.1601,0.1601,0.1589,0.1589,0.1589,0,0,0,0,0,0,0,0,0,0,0,0,0,0.1515,0.1516,0.1577,0.1578,0.1578,0.1602,0.1602,0.1602,0.1602,0.1601,0.1601,0.1601,0.1589,0.1589,0.1589,0,0,0,0,0,0,0,0,0,0,0,0,0,0.1539,0.1516,0.1577,0.1583,0.1584,0.1602,0.1602,0.1602,0.1602,0.1601,0.1601,0.1601,0.159,0.1589,0.1589,0.159,0,0,0.1588,0.1588,0,0,0,0,0,0,0,0,0.1537,0.1541,0.1581,0.1582,0.1583,0.16,0.1575,0.1597,0.1602,0.1592,0.1601,0.1601,0.1591,0.1591,0.1593,0.1589,0.1589,0.1588,0.1588,0.1588,0.1587,0,0,0,0,0,0,0,0.1536,0.1539,0.1584,0.1582,0.1583,0.1579,0.1582,0.1579,0.159,0.1593,0.1594,0.16,0.1591,0.1593,0.1593,0.1589,0.1588,0.1588,0.1587,0.1587,0.162,0.1621,0,0,0,0,0,0,0.1539,0.1538,0.1584,0.1585,0.1562,0.158,0.1584,0.1593,0.1591,0.1591,0.16,0.16,0.1594,0.1593,0.1592,0.1617,0.1588,0.1587,0.1587,0.1619,0.162,0.1622,0,0,0,0,0,0,0.1537,0.1543,0.1583,0.1564,0.1569,0.1582,0.1592,0.1594,0.16,0.1597,0.1596,0.1606,0.1594,0.1593,0.1601,0.1616,0.1587,0.1587,0.1618,0.1619,0.1621,0.1652,0,0,0,0,0,0,0.1535,0.1542,0.1549,0.1564,0.157,0.16,0.1593,0.1594,0.1605,0.1605,0.1602,0.16,0.1594,0.1602,0.1601,0.1615,0.1586,0.1616,0.1619,0.162,0.1649,0.1654,0.1658,0,0,0,0,0,0.1533,0.1543,0.1549,0.1555,0.158,0.1601,0.1604,0.161,0.1606,0.1614,0.1613,0.16,0.1614,0.1602,0.1601,0.1615,0.1615,0.1618,0.162,0.1647,0.1653,0.1658,0,0,0,0,0,0,0.1517,0.1545,0.1551,0.1569,0.1588,0.1602,0.1609,0.1614,0.162,0.1617,0.161,0.1609,0.1624,0.1617,0.1604,0.1633,0.1614,0.1616,0.1635,0.1641,0.1645,0.1635,0.1586,0,0,0,0,0,0.1518,0.1534,0.1559,0.1573,0.1583,0.1597,0.1605,0.1612,0.1621,0.1623,0.1622,0.1624,0.1632,0.1634,0.1638,0.1649,0.1678,0.166,0.1664,0.1668,0.166,0.1725,0.1735,0.1629,0.1629,0.1629,0,0,0.1515,0.1533,0.1542,0.1571,0.1583,0.1602,0.1601,0.1618,0.163,0.162,0.1632,0.1638,0.164,0.1656,0.1662,0.1652,0.1721,0.1671,0.1674,0.1664,0.1729,0.1739,0.1748,0.1631,0.1631,0.163,0,0,0.1518,0.1534,0.155,0.1568,0.1594,0.1605,0.1612,0.1632,0.1638,0.1654,0.1655,0.1669,0.1676,0.1684,0.1688,0.1719,0.1743,0.1725,0.1736,0.18,0.1809,0.1817,0.1899,0.1914,0.1726,0.1726,0.1726,0,0.1512,0.1538,0.1556,0.1576,0.1592,0.1608,0.1627,0.1637,0.1657,0.1671,0.1662,0.1696,0.1688,0.172,0.1725,0.1727,0.1777,0.1714,0.1806,0.1815,0.1823,0.1904,0.192,0.1728,0.1728,0.1728,0.1727,0,0.153,0.155,0.156,0.1592,0.161,0.1629,0.1652,0.1669,0.1677,0.1694,0.1728,0.1729,0.1755,0.1755,0.174,0.1795,0.1819,0.1807,0.1792,0.1835,0.1918,0.1935,0.1731,0.173,0.1729,0.1729,0,0,0.1517,0.1564,0.1567,0.1585,0.1621,0.1638,0.1664,0.1699,0.1728,0.1742,0.1784,0.1786,0.18,0.1804,0.1805,0.1837,0.1934,0.1841,0.1843,0.192,0.2103,0.2097,0.2115,0.1946,0.1949,0.195,0.215,0,0.1525,0.1561,0.1584,0.1616,0.1637,0.1664,0.169,0.1724,0.1754,0.1798,0.1812,0.1851,0.1819,0.1841,0.187,0.192,0.1974,0.1882,0.2049,0.2054,0.2042,0.2132,0.2077,0.2247,0.2166,0.2169,0.2171,0,0.1534,0.1559,0.1592,0.1636,0.1648,0.1671,0.1726,0.1753,0.1816,0.1843,0.1889,0.1915,0.1971,0.1931,0.2053,0.2004,0.2052,0.2083,0.2092,0.2079,0.2077,0.2185,0.228,0.2222,0.2196,0.2194,0.2193,0,0.1516,0.1563,0.1589,0.1604,0.1657,0.1679,0.1709,0.1769,0.1795,0.1887,0.193,0.2004,0.2055,0.2121,0.2181,0.2138,0.232,0.228,0.2326,0.2328,0.2307,0.2302,0.2358,0.237,0.2369,0.2369,0.2368,0,0.1515,0.1534,0.1584,0.1599,0.1624,0.1675,0.1713,0.1757,0.183,0.1881,0.1957,0.202,0.2103,0.2206,0.2243,0.2356,0.2392,0.2352,0.2382,0.2319,0.2313,0.2278,0.2234,0.2376,0.2375,0.2373,0.2372,0,0.1489,0.1523,0.1549,0.1604,0.1613,0.1634,0.1683,0.1725,0.181,0.1886,0.1922,0.2062,0.2215,0.2305,0.244,0.2451,0.2489,0.2569,0.2497,0.2513,0.2462,0.2422,0.2425,0.2345,0.2664,0.2665,0.2666,0,0.1481,0.1494,0.153,0.1535,0.1557,0.1589,0.1614,0.1691,0.1746,0.1907,0.1955,0.213,0.2245,0.2468,0.2545,0.2673,0.2552,0.2667,0.2547,0.2474,0.2453,0.2329,0.225,0.2559,0.2559,0.2559,0.2559,0,0.1453,0.1465,0.148,0.1495,0.1516,0.1532,0.1587,0.1616,0.1738,0.183,0.1979,0.2089,0.2328,0.2451,0.262,0.2666,0.254,0.2668,0.2616,0.2397,0.2243,0.2176,0.2426,0.2559,0.2559,0.2559,0.2559,0.2559,0.1416,0.1416,0.1436,0.1447,0.1464,0.1487,0.1491,0.158,0.1657,0.1798,0.1941,0.2105,0.2328,0.2564,0.2594,0.2618,0.2553,0.2556,0.2531,0.2424,0.2276,0.2527,0.2662,0.2663,0.2663,0.2664,0.2664,0,0.1373,0.1381,0.139,0.1397,0.14,0.143,0.148,0.1497,0.1579,0.1748,0.1881,0.2141,0.2298,0.244,0.2577,0.2513,0.2362,0.2437,0.2247,0.2185,0.246,0.2381,0.243,0.243,0.243,0.243,0.243,0.243,0.1349,0.1345,0.1358,0.1337,0.1342,0.1333,0.1349,0.1396,0.1495,0.1663,0.1823,0.1989,0.2278,0.2489,0.2499,0.2426,0.2205,0.2131,0.2076,0.2276,0.2284,0.2291,0.2206,0.2218,0.2218,0.1717,0.1713,0.1711]},{"header":{"parameterUnit":"m.s-1","parameterCategory":2,"la1":30.2991,"la2":30.254,"lo1":-89.0895,"lo2":-89.0444,"dy":0.0017,"dx":0.0017,"nx":28,"ny":28,"refTime":"2024-04-17T03:00:00:Z","depth":"0","parameterNumber":3,"parameterNumberName":"V-component_of_CURRENTS"},"data":[0,0,0,0,0,0,0,0,0,0,0,0,0,0,0,0,0,0,0,0,0,0,0,0,0,0,0,0,0,0,0,0,0,0,0,0,0,0,0,0,0,0,0,0,0,0,0,0,0,0,0,0,0,0,0,0,0,0,-0.0132,-0.0132,0,-0.0184,-0.0184,-0.0185,-0.0221,-0.0221,-0.0221,-0.0221,-0.0305,-0.0307,-0.0309,0,0,0,0,0,0,0,0,0,0,0,0,0,-0.008,-0.0081,-0.0132,-0.0132,-0.0133,-0.0183,-0.0184,-0.0185,-0.0221,-0.0221,-0.0221,-0.0222,-0.0304,-0.0307,-0.0309,0,0,0,0,0,0,0,0,0,0,0,0,0,-0.0115,-0.0081,-0.0132,-0.0156,-0.0159,-0.0183,-0.0184,-0.0185,-0.0221,-0.0221,-0.0221,-0.0222,-0.0304,-0.0307,-0.031,-0.0321,0,0,-0.0319,-0.032,0,0,0,0,0,0,0,0,-0.0113,-0.0117,-0.0152,-0.0155,-0.0158,-0.0196,-0.0197,-0.0232,-0.0221,-0.0198,-0.0221,-0.0222,-0.0271,-0.0277,-0.0286,-0.0325,-0.0329,-0.0319,-0.0321,-0.0322,-0.0323,0,0,0,0,0,0,0,-0.011,-0.0115,-0.0153,-0.0153,-0.0156,-0.0171,-0.0176,-0.0204,-0.0233,-0.02,-0.0202,-0.0207,-0.0273,-0.0283,-0.0288,-0.033,-0.0319,-0.0322,-0.0323,-0.0325,-0.0377,-0.0377,0,0,0,0,0,0,-0.0102,-0.0112,-0.0151,-0.0154,-0.0135,-0.0171,-0.0177,-0.0184,-0.0232,-0.0239,-0.0207,-0.0209,-0.0277,-0.0284,-0.0291,-0.0309,-0.0322,-0.0325,-0.0327,-0.0377,-0.0377,-0.0377,0,0,0,0,0,0,-0.01,-0.0105,-0.0149,-0.0134,-0.0141,-0.0172,-0.0179,-0.0184,-0.0195,-0.0237,-0.0245,-0.0212,-0.0278,-0.0287,-0.0311,-0.0312,-0.0326,-0.0329,-0.0378,-0.0377,-0.0377,-0.0344,0,0,0,0,0,0,-0.0099,-0.0104,-0.0105,-0.0133,-0.0141,-0.016,-0.0178,-0.0185,-0.0197,-0.02,-0.0244,-0.0252,-0.0279,-0.0306,-0.0314,-0.0317,-0.0331,-0.0378,-0.0378,-0.0377,-0.0345,-0.0342,-0.0339,0,0,0,0,0,-0.0097,-0.0095,-0.0104,-0.0109,-0.0141,-0.0159,-0.0164,-0.0188,-0.0197,-0.0199,-0.0226,-0.025,-0.0306,-0.0308,-0.0317,-0.0321,-0.0379,-0.0378,-0.0377,-0.0347,-0.0342,-0.0339,0,0,0,0,0,0,-0.0074,-0.01,-0.011,-0.0117,-0.0135,-0.0165,-0.0169,-0.0184,-0.0207,-0.021,-0.0248,-0.0258,-0.028,-0.0301,-0.0302,-0.0332,-0.0346,-0.0346,-0.0319,-0.0316,-0.0313,-0.0295,-0.0334,0,0,0,0,0,-0.0068,-0.0073,-0.01,-0.0104,-0.0112,-0.0139,-0.0149,-0.0164,-0.0188,-0.0199,-0.0227,-0.0256,-0.0283,-0.0299,-0.0324,-0.0342,-0.0337,-0.0349,-0.0346,-0.0343,-0.0333,-0.0326,-0.0321,-0.0373,-0.0373,-0.0373,0,0,-0.006,-0.0074,-0.0078,-0.01,-0.0115,-0.0126,-0.0146,-0.0157,-0.0167,-0.0204,-0.0223,-0.0248,-0.0284,-0.0304,-0.0316,-0.0323,-0.0322,-0.0342,-0.0339,-0.0331,-0.0325,-0.0319,-0.0315,-0.0373,-0.0373,-0.0373,0,0,-0.0045,-0.0059,-0.0058,-0.0073,-0.0093,-0.0111,-0.0112,-0.0139,-0.0152,-0.017,-0.0199,-0.022,-0.0261,-0.0286,-0.0304,-0.0298,-0.0306,-0.0307,-0.0281,-0.0274,-0.027,-0.0266,-0.0237,-0.0231,-0.0306,-0.0306,-0.0306,0,-0.0033,-0.004,-0.006,-0.0065,-0.0074,-0.0102,-0.0104,-0.0122,-0.0153,-0.0153,-0.017,-0.021,-0.0252,-0.0268,-0.0274,-0.0292,-0.0278,-0.0294,-0.0269,-0.0265,-0.0262,-0.0234,-0.0227,-0.0304,-0.0305,-0.0305,-0.0305,0,-0.0021,-0.0027,-0.0027,-0.0044,-0.0055,-0.006,-0.0087,-0.0094,-0.011,-0.0124,-0.0134,-0.0178,-0.0193,-0.0219,-0.0253,-0.0249,-0.0242,-0.0265,-0.0277,-0.0254,-0.0226,-0.022,-0.0302,-0.0303,-0.0303,-0.0304,0,0,0.0011,-0.0014,-0.0013,-0.0011,-0.0043,-0.0044,-0.0059,-0.0069,-0.0047,-0.0087,-0.0057,-0.013,-0.0134,-0.0154,-0.019,-0.0201,-0.0178,-0.0223,-0.0223,-0.019,-0.0137,-0.0163,-0.0158,-0.0194,-0.0193,-0.0192,-0.0121,0,0.0028,0.003,0.0008,0.0014,0.0014,-0.0013,-0.001,-0.0021,-0.0025,0.0001,-0.0043,-0.0029,-0.0114,-0.0099,-0.0131,-0.0156,-0.0162,-0.0193,-0.0167,-0.0165,-0.0189,-0.0153,-0.0187,-0.0131,-0.0115,-0.0114,-0.0114,0,0.0051,0.0049,0.0056,0.006,0.0061,0.0065,0.0087,0.0088,0.01,0.0106,0.0101,0.0086,0.0063,0.0002,-0.0041,-0.0052,-0.0092,-0.0122,-0.012,-0.0152,-0.0181,-0.0154,-0.012,-0.0273,-0.0104,-0.0105,-0.0106,0,0.0093,0.0087,0.0099,0.0094,0.0091,0.0106,0.0116,0.0128,0.0169,0.0197,0.0252,0.0204,0.0232,0.0153,0.0067,0.0028,0.0042,-0.0017,-0.0076,-0.0077,-0.0105,-0.0111,-0.0215,-0.0038,-0.0038,-0.0039,-0.0039,0,0.0121,0.0134,0.0128,0.0136,0.0183,0.0167,0.0236,0.0241,0.0301,0.0383,0.0328,0.0395,0.0273,0.0257,0.014,0.0065,0.01,-0.0054,-0.006,-0.0094,-0.0099,-0.0234,-0.0316,-0.0036,-0.0037,-0.0037,-0.0037,0,0.0164,0.0151,0.0177,0.019,0.0204,0.0246,0.0321,0.0394,0.0427,0.0543,0.0568,0.0572,0.054,0.0416,0.0324,0.0193,0.0014,0.0065,0.0043,0.0031,-0.0206,-0.0283,-0.0368,-0.0437,0.0009,0.0009,0.0009,0,0.0183,0.0197,0.0228,0.0273,0.0285,0.0348,0.0418,0.0457,0.0546,0.0654,0.0734,0.0743,0.0754,0.0609,0.0376,0.0196,0.0041,0.0052,-0.0059,-0.0211,-0.0301,-0.0365,-0.0422,-0.0069,-0.0069,-0.007,-0.0071,0,0.0229,0.0242,0.0271,0.0367,0.0442,0.0522,0.0618,0.0698,0.0775,0.086,0.0971,0.0989,0.0843,0.0647,0.0396,0.0239,-0.008,0.0032,-0.0122,-0.0366,-0.0444,-0.0515,-0.0108,-0.0077,-0.0076,-0.0076,-0.0075,-0.0075,0.0279,0.0325,0.0388,0.0484,0.0573,0.07,0.0769,0.0877,0.1004,0.1127,0.1138,0.1176,0.0886,0.0521,0.0299,-0.014,-0.0133,-0.0289,-0.036,-0.0404,-0.0514,-0.0113,-0.0103,-0.0103,-0.0102,-0.0102,-0.0102,0,0.0358,0.042,0.0514,0.0631,0.0745,0.0771,0.0915,0.0983,0.1111,0.1228,0.129,0.1176,0.0799,0.0413,-0.0163,-0.0471,-0.0603,-0.0635,-0.0751,-0.0785,-0.0422,-0.0473,-0.0548,-0.0548,-0.0548,-0.0548,-0.0548,-0.0547,0.0412,0.0521,0.0578,0.0774,0.085,0.0978,0.1048,0.1134,0.1219,0.1325,0.1353,0.1372,0.1091,0.0049,-0.0679,-0.085,-0.1055,-0.1102,-0.1184,-0.0971,-0.0945,-0.092,-0.099,-0.1172,-0.1173,-0.1538,-0.1541,-0.1544]}],[{"header":{"parameterUnit":"m.s-1","parameterCategory":2,"la1":30.2991,"la2":30.254,"lo1":-89.0895,"lo2":-89.0444,"dy":0.0017,"dx":0.0017,"nx":28,"ny":28,"refTime":"2024-04-17T03:00:00:Z","depth":"2","parameterNumber":2,"parameterNumberName":"U-component_of_CURRENTS"},"data":[0,0,0,0,0,0,0,0,0,0,0,0,0,0,0,0,0,0,0,0,0,0,0,0,0,0,0,0,0,0,0,0,0,0,0,0,0,0,0,0,0,0,0,0,0,0,0,0,0,0,0,0,0,0,0,0,0,0,0.1621,0.1622,0,0.1652,0.1652,0.1653,0.1654,0.1654,0.1654,0.1654,0.1647,0.1647,0.1647,0,0,0,0,0,0,0,0,0,0,0,0,0,0.1552,0.1554,0.1621,0.1622,0.1622,0.1652,0.1652,0.1653,0.1654,0.1654,0.1654,0.1654,0.1647,0.1647,0.1647,0,0,0,0,0,0,0,0,0,0,0,0,0,0.1581,0.1554,0.1621,0.1628,0.1629,0.1652,0.1652,0.1653,0.1654,0.1654,0.1654,0.1654,0.1647,0.1647,0.1647,0.1652,0,0,0.1647,0.1647,0,0,0,0,0,0,0,0,0.1579,0.1583,0.1627,0.1628,0.1629,0.1651,0.1626,0.1651,0.1654,0.1643,0.1654,0.1654,0.1646,0.1646,0.165,0.1652,0.1651,0.1647,0.1647,0.1647,0.1647,0,0,0,0,0,0,0,0.1577,0.1582,0.1632,0.1627,0.1629,0.1626,0.163,0.1631,0.1643,0.1644,0.1645,0.1651,0.1646,0.165,0.165,0.1651,0.1647,0.1647,0.1647,0.1647,0.169,0.1691,0,0,0,0,0,0,0.1579,0.158,0.1631,0.1633,0.1605,0.1628,0.1632,0.1643,0.1644,0.1645,0.1651,0.1651,0.1651,0.165,0.165,0.1678,0.1647,0.1647,0.1647,0.1689,0.169,0.1691,0,0,0,0,0,0,0.1577,0.1583,0.1629,0.1608,0.1614,0.163,0.1641,0.1643,0.1652,0.1651,0.165,0.1658,0.165,0.165,0.166,0.1677,0.1647,0.1647,0.1687,0.1689,0.1691,0.1719,0,0,0,0,0,0,0.1575,0.1582,0.1591,0.1609,0.1616,0.1651,0.1642,0.1644,0.1657,0.1657,0.1657,0.1655,0.165,0.166,0.166,0.1676,0.1647,0.1686,0.1688,0.169,0.1717,0.1722,0.1726,0,0,0,0,0,0.1573,0.1585,0.1591,0.1597,0.1627,0.1651,0.1655,0.1663,0.1657,0.1667,0.1667,0.1656,0.1674,0.1661,0.1661,0.1677,0.1685,0.1687,0.169,0.1715,0.1721,0.1726,0,0,0,0,0,0,0.1557,0.1587,0.1594,0.1615,0.1636,0.1653,0.1662,0.1667,0.1675,0.1672,0.1666,0.1666,0.1682,0.1678,0.1664,0.1698,0.1679,0.1682,0.1699,0.1704,0.1709,0.1697,0.1647,0,0,0,0,0,0.1559,0.1578,0.1605,0.1621,0.1632,0.1647,0.1658,0.1665,0.1675,0.1678,0.1679,0.1683,0.1693,0.1696,0.1703,0.1717,0.1742,0.173,0.1735,0.1738,0.1731,0.1794,0.1804,0.17,0.17,0.17,0,0,0.1557,0.1576,0.1586,0.1619,0.1633,0.1653,0.1653,0.1672,0.1684,0.1676,0.169,0.1697,0.1701,0.1721,0.1728,0.1718,0.1787,0.1742,0.1745,0.1735,0.1798,0.1808,0.1817,0.1702,0.1701,0.1701,0,0,0.1562,0.1581,0.1599,0.1619,0.1646,0.1659,0.1666,0.1688,0.1695,0.1713,0.1713,0.1729,0.174,0.175,0.1755,0.1788,0.1809,0.1797,0.1808,0.1871,0.188,0.1888,0.1954,0.1968,0.1799,0.1799,0.1799,0,0.1558,0.1585,0.1607,0.1629,0.1645,0.1662,0.1682,0.1694,0.1715,0.1729,0.172,0.1759,0.1753,0.1787,0.1792,0.1797,0.1841,0.1785,0.1877,0.1885,0.1893,0.1959,0.1974,0.18,0.18,0.18,0.18,0,0.1578,0.16,0.1612,0.1646,0.1666,0.1686,0.1709,0.1728,0.1736,0.1753,0.1789,0.1792,0.182,0.1822,0.1808,0.1864,0.1883,0.1877,0.1862,0.1906,0.1972,0.1987,0.1803,0.1802,0.1802,0.1801,0,0,0.1566,0.1616,0.162,0.1639,0.1676,0.1695,0.1721,0.1757,0.1785,0.1802,0.1844,0.1849,0.1864,0.187,0.1873,0.1906,0.1993,0.191,0.1913,0.1973,0.2151,0.2081,0.2091,0.2014,0.2016,0.2018,0.2183,0,0.1575,0.1613,0.1637,0.1672,0.1694,0.1722,0.1748,0.1782,0.1812,0.1857,0.1873,0.1913,0.1882,0.1907,0.1936,0.1986,0.2031,0.195,0.21,0.2105,0.2035,0.2104,0.1924,0.2048,0.2198,0.22,0.2202,0,0.1584,0.1611,0.1645,0.1692,0.1705,0.1728,0.1783,0.1811,0.1875,0.1902,0.195,0.1977,0.2033,0.1995,0.211,0.2069,0.2106,0.2132,0.214,0.2068,0.2061,0.2025,0.207,0.2227,0.2225,0.2223,0.2221,0,0.1564,0.1614,0.164,0.1656,0.1712,0.1735,0.1767,0.1827,0.1856,0.1945,0.1993,0.2064,0.2116,0.2176,0.222,0.219,0.2343,0.232,0.2294,0.2291,0.2159,0.2139,0.2396,0.2396,0.2395,0.2395,0.2394,0,0.1563,0.1582,0.1635,0.165,0.1677,0.173,0.177,0.1816,0.1893,0.1947,0.2021,0.2088,0.2163,0.225,0.2277,0.2339,0.2407,0.2308,0.233,0.2166,0.2145,0.2303,0.229,0.2401,0.24,0.2398,0.2397,0,0.1534,0.1569,0.1597,0.1655,0.1666,0.1688,0.1746,0.1791,0.1879,0.196,0.1997,0.2134,0.2275,0.2342,0.2457,0.2416,0.2477,0.2474,0.2273,0.2264,0.2374,0.2361,0.2488,0.2487,0.2486,0.2485,0.2485,0,0.1524,0.1538,0.1579,0.1588,0.1612,0.1647,0.1678,0.1759,0.1818,0.1985,0.2037,0.2201,0.2291,0.2442,0.244,0.2503,0.2526,0.2325,0.2206,0.2376,0.2385,0.2373,0.2362,0.2069,0.2065,0.2061,0.2059,0,0.1495,0.1508,0.1525,0.155,0.1577,0.1602,0.1664,0.1698,0.1824,0.1909,0.2057,0.2143,0.2298,0.2282,0.2335,0.233,0.2297,0.2258,0.2526,0.2049,0.1987,0.1993,0.1995,0.2029,0.2032,0.2035,0.2036,0.2037,0.1458,0.1462,0.1488,0.1511,0.1534,0.1574,0.1587,0.168,0.1755,0.1867,0.1973,0.2033,0.2088,0.2093,0.2072,0.2051,0.2192,0.2067,0.2075,0.2087,0.1985,0.1922,0.1935,0.1937,0.1939,0.1941,0.1943,0,0.1419,0.1436,0.1454,0.1478,0.1495,0.1526,0.159,0.1616,0.1697,0.1762,0.1832,0.1695,0.1709,0.1791,0.1717,0.1711,0.1673,0.1643,0.1579,0.161,0.1637,0.1509,0.1335,0.1333,0.1331,0.1329,0,0,0.14,0.1407,0.1429,0.1441,0.1458,0.1464,0.149,0.1549,0.1589,0.155,0.1518,0.1608,0.1707,0.1479,0.1476,0.1399,0.1485,0.1346,0.1837,0.1792,0.1816,0.1892,0.1731,0,0,0,0,0]},{"header":{"parameterUnit":"m.s-1","parameterCategory":2,"la1":30.2991,"la2":30.254,"lo1":-89.0895,"lo2":-89.0444,"dy":0.0017,"dx":0.0017,"nx":28,"ny":28,"refTime":"2024-04-17T03:00:00:Z","depth":"2","parameterNumber":3,"parameterNumberName":"V-component_of_CURRENTS"},"data":[0,0,0,0,0,0,0,0,0,0,0,0,0,0,0,0,0,0,0,0,0,0,0,0,0,0,0,0,0,0,0,0,0,0,0,0,0,0,0,0,0,0,0,0,0,0,0,0,0,0,0,0,0,0,0,0,0,0,-0.0213,-0.0213,0,-0.0263,-0.0264,-0.0264,-0.0298,-0.0298,-0.0298,-0.0299,-0.0379,-0.0381,-0.0383,0,0,0,0,0,0,0,0,0,0,0,0,0,-0.0166,-0.0167,-0.0213,-0.0213,-0.0214,-0.0263,-0.0264,-0.0264,-0.0298,-0.0298,-0.0298,-0.0299,-0.0378,-0.0381,-0.0383,0,0,0,0,0,0,0,0,0,0,0,0,0,-0.0199,-0.0167,-0.0213,-0.0236,-0.0239,-0.0263,-0.0264,-0.0264,-0.0298,-0.0298,-0.0299,-0.0299,-0.0378,-0.0381,-0.0383,-0.0396,0,0,-0.0392,-0.0394,0,0,0,0,0,0,0,0,-0.0197,-0.0201,-0.0232,-0.0235,-0.0237,-0.0274,-0.0277,-0.031,-0.0298,-0.0276,-0.0299,-0.0299,-0.0346,-0.0352,-0.0361,-0.04,-0.0403,-0.0393,-0.0394,-0.0396,-0.0397,0,0,0,0,0,0,0,-0.0195,-0.0199,-0.0233,-0.0233,-0.0236,-0.0251,-0.0256,-0.0283,-0.031,-0.0278,-0.028,-0.0285,-0.0348,-0.0358,-0.0363,-0.0404,-0.0393,-0.0395,-0.0397,-0.0398,-0.0452,-0.0452,0,0,0,0,0,0,-0.0186,-0.0196,-0.0231,-0.0235,-0.0217,-0.0252,-0.0257,-0.0262,-0.0309,-0.0316,-0.0285,-0.0286,-0.0353,-0.036,-0.0366,-0.0381,-0.0396,-0.0398,-0.04,-0.0453,-0.0452,-0.0452,0,0,0,0,0,0,-0.0185,-0.0189,-0.0229,-0.0216,-0.0222,-0.0252,-0.0258,-0.0263,-0.0273,-0.0314,-0.0321,-0.0289,-0.0353,-0.0362,-0.0385,-0.0385,-0.04,-0.0402,-0.0453,-0.0453,-0.0452,-0.0414,0,0,0,0,0,0,-0.0183,-0.0188,-0.0187,-0.0216,-0.0223,-0.0239,-0.0258,-0.0264,-0.0275,-0.0278,-0.032,-0.0328,-0.0354,-0.038,-0.0388,-0.0389,-0.0405,-0.0454,-0.0453,-0.0452,-0.0415,-0.0412,-0.0409,0,0,0,0,0,-0.0181,-0.0178,-0.0187,-0.0191,-0.0222,-0.0239,-0.0244,-0.0267,-0.0275,-0.0277,-0.0303,-0.0326,-0.0382,-0.0383,-0.0392,-0.0394,-0.0454,-0.0453,-0.0452,-0.0417,-0.0413,-0.0409,0,0,0,0,0,0,-0.0157,-0.0182,-0.0192,-0.0197,-0.0215,-0.0244,-0.0247,-0.0263,-0.0284,-0.0286,-0.0324,-0.0334,-0.0355,-0.0376,-0.0376,-0.0406,-0.0421,-0.0422,-0.0391,-0.0387,-0.0384,-0.0365,-0.0407,0,0,0,0,0,-0.0151,-0.0155,-0.0182,-0.0184,-0.0191,-0.0218,-0.0227,-0.0242,-0.0266,-0.0275,-0.0304,-0.0332,-0.0359,-0.0374,-0.04,-0.0417,-0.0421,-0.0422,-0.0419,-0.0416,-0.0406,-0.0408,-0.0403,-0.045,-0.045,-0.045,0,0,-0.0142,-0.0155,-0.0158,-0.0179,-0.0194,-0.0203,-0.0224,-0.0235,-0.0242,-0.0281,-0.0297,-0.0324,-0.036,-0.0379,-0.0391,-0.0398,-0.0405,-0.0415,-0.0413,-0.0404,-0.0406,-0.0402,-0.0398,-0.0449,-0.0449,-0.0449,0,0,-0.0124,-0.0137,-0.0136,-0.0149,-0.0169,-0.0187,-0.0187,-0.0215,-0.0226,-0.0244,-0.0273,-0.0295,-0.0336,-0.036,-0.0378,-0.0372,-0.0389,-0.0381,-0.0352,-0.0353,-0.0349,-0.0346,-0.0343,-0.0339,-0.0379,-0.0379,-0.0379,0,-0.0112,-0.0116,-0.0137,-0.014,-0.0147,-0.0177,-0.0177,-0.0194,-0.0224,-0.0226,-0.0242,-0.0286,-0.0325,-0.0341,-0.0345,-0.0365,-0.0363,-0.0364,-0.0348,-0.0345,-0.0342,-0.034,-0.0336,-0.0377,-0.0378,-0.0378,-0.0378,0,-0.0097,-0.0101,-0.0099,-0.0114,-0.0124,-0.0128,-0.0154,-0.0161,-0.0177,-0.0192,-0.0205,-0.0249,-0.0268,-0.0292,-0.0322,-0.0322,-0.0325,-0.0344,-0.0356,-0.0335,-0.0334,-0.0331,-0.0375,-0.0375,-0.0376,-0.0376,0,0,-0.0064,-0.0085,-0.0084,-0.0081,-0.011,-0.0111,-0.0122,-0.0132,-0.0114,-0.0153,-0.0131,-0.0196,-0.0205,-0.0226,-0.0261,-0.0274,-0.0267,-0.0298,-0.0299,-0.0289,-0.0259,-0.0335,-0.0339,-0.0278,-0.0278,-0.0277,-0.0265,0,-0.0045,-0.0039,-0.0059,-0.005,-0.0048,-0.0074,-0.0071,-0.0082,-0.0091,-0.0075,-0.0118,-0.0113,-0.0184,-0.0177,-0.0206,-0.0242,-0.0257,-0.0268,-0.0285,-0.0285,-0.0351,-0.0338,-0.03,-0.0292,-0.0263,-0.0262,-0.0262,0,-0.0022,-0.002,-0.0009,-0.0004,-0.0003,0.0002,0.0018,0.0018,0.0021,0.0021,0.0011,-0.0011,-0.0037,-0.009,-0.0148,-0.0147,-0.02,-0.0238,-0.0238,-0.0319,-0.0356,-0.031,-0.0289,-0.0258,-0.0258,-0.0258,-0.0259,0,0.002,0.0019,0.0034,0.0031,0.0029,0.0043,0.005,0.0055,0.0086,0.01,0.014,0.009,0.0099,0.0022,-0.0086,-0.01,-0.0144,-0.0171,-0.029,-0.0295,-0.0272,-0.0277,-0.021,-0.021,-0.021,-0.021,-0.021,0,0.005,0.0064,0.0062,0.0072,0.0114,0.0099,0.0156,0.0157,0.0199,0.0255,0.0208,0.0246,0.013,0.008,-0.0034,-0.0157,-0.0107,-0.0279,-0.0298,-0.026,-0.0264,-0.0244,-0.0248,-0.021,-0.021,-0.021,-0.021,0,0.0091,0.0083,0.011,0.0123,0.0134,0.0172,0.0229,0.0283,0.031,0.0389,0.0408,0.0387,0.0314,0.0177,0.0057,-0.0078,-0.0195,-0.0257,-0.021,-0.0227,-0.0351,-0.0353,-0.0363,-0.0366,-0.0368,-0.037,-0.0371,0,0.0111,0.0127,0.0156,0.0191,0.0201,0.0254,0.0305,0.0337,0.0397,0.0469,0.052,0.0485,0.0431,0.0222,0.0011,-0.0193,-0.0221,-0.031,-0.0354,-0.0349,-0.0367,-0.0366,-0.0365,-0.0292,-0.0293,-0.0293,-0.0294,0,0.0154,0.0165,0.0189,0.026,0.0316,0.0383,0.0452,0.0509,0.056,0.0607,0.0659,0.0624,0.0442,0.0234,-0.0059,-0.0195,-0.028,-0.0334,-0.0308,-0.0287,-0.0289,-0.0305,-0.0305,-0.03,-0.0299,-0.0299,-0.0298,-0.0298,0.0193,0.0227,0.0268,0.0334,0.041,0.0505,0.0552,0.0628,0.0701,0.0754,0.0722,0.0668,0.0472,0.0089,-0.0125,-0.0333,-0.0338,-0.042,-0.0414,-0.0408,-0.0429,-0.0439,-0.048,-0.048,-0.048,-0.0481,-0.0481,0,0.0241,0.0281,0.0346,0.0425,0.0515,0.055,0.0649,0.0671,0.0737,0.0784,0.0772,0.0554,0.033,0.0123,-0.0189,-0.0414,-0.0393,-0.0474,-0.0386,-0.038,-0.0375,-0.0391,-0.0432,-0.0433,-0.0433,-0.0433,0,0,0.0273,0.0334,0.0362,0.0497,0.0569,0.0679,0.0731,0.074,0.0765,0.0751,0.0732,0.0654,0.0398,0.0178,-0.0085,-0.0252,-0.0269,-0.0287,-0.0306,-0.0165,-0.0157,-0.0326,-0.0344,0,0,0,0,0]}],[{"header":{"parameterUnit":"m.s-1","parameterCategory":2,"la1":30.2991,"la2":30.254,"lo1":-89.0895,"lo2":-89.0444,"dy":0.0017,"dx":0.0017,"nx":28,"ny":28,"refTime":"2024-04-17T03:00:00:Z","depth":"4","parameterNumber":2,"parameterNumberName":"U-component_of_CURRENTS"},"data":[0,0,0,0,0,0,0,0,0,0,0,0,0,0,0,0,0,0,0,0,0,0,0,0,0,0,0,0,0,0,0,0,0,0,0,0,0,0,0,0,0,0,0,0,0,0,0,0,0,0,0,0,0,0,0,0,0,0,0.0856,0.0857,0,0.0884,0.0884,0.0885,0.0922,0.0923,0.0924,0.0924,0.1024,0.1026,0.1028,0,0,0,0,0,0,0,0,0,0,0,0,0,0.082,0.082,0.0856,0.0857,0.0857,0.0884,0.0884,0.0885,0.0922,0.0923,0.0924,0.0925,0.1024,0.1026,0.1028,0,0,0,0,0,0,0,0,0,0,0,0,0,0.0839,0.082,0.0856,0.088,0.0883,0.0884,0.0884,0.0885,0.0922,0.0923,0.0924,0.0925,0.1023,0.1026,0.1029,0.1024,0,0,0.1038,0.1039,0,0,0,0,0,0,0,0,0.0838,0.084,0.0876,0.0878,0.0881,0.0902,0.0908,0.0935,0.0922,0.0906,0.0924,0.0926,0.099,0.0996,0.0996,0.1029,0.1033,0.1038,0.104,0.1041,0.1042,0,0,0,0,0,0,0,0.0837,0.0839,0.0866,0.0876,0.088,0.0884,0.0888,0.0913,0.0942,0.0907,0.091,0.0915,0.0992,0.0993,0.0999,0.1035,0.1038,0.104,0.1042,0.1043,0.112,0.112,0,0,0,0,0,0,0.0835,0.0838,0.0865,0.0867,0.0863,0.0884,0.0888,0.0893,0.094,0.0948,0.0914,0.0917,0.0987,0.0995,0.1002,0.1081,0.1041,0.1044,0.1045,0.112,0.112,0.112,0,0,0,0,0,0,0.0834,0.0837,0.0864,0.0854,0.0858,0.0884,0.0889,0.0893,0.0918,0.0945,0.0954,0.0937,0.0988,0.0998,0.1044,0.1082,0.1045,0.1048,0.1119,0.112,0.112,0.1186,0,0,0,0,0,0,0.0833,0.0837,0.0844,0.0854,0.0859,0.0881,0.0888,0.0893,0.0918,0.0923,0.0967,0.0976,0.099,0.1039,0.1047,0.1086,0.105,0.1119,0.1119,0.112,0.1184,0.1189,0.1193,0,0,0,0,0,0.0832,0.0835,0.0844,0.0847,0.0866,0.0881,0.0885,0.0905,0.0919,0.0932,0.0962,0.0976,0.1047,0.1042,0.1051,0.1091,0.1119,0.1119,0.112,0.1182,0.1188,0.1193,0,0,0,0,0,0,0.0828,0.084,0.0849,0.0858,0.0877,0.0889,0.0908,0.0916,0.0947,0.0967,0.0985,0.0996,0.1045,0.105,0.1044,0.1109,0.1083,0.1085,0.1127,0.1133,0.1138,0.1139,0.1052,0,0,0,0,0,0.0828,0.0836,0.085,0.0862,0.0878,0.0896,0.0908,0.0925,0.095,0.0965,0.0996,0.1025,0.1048,0.1078,0.1094,0.1139,0.1139,0.1165,0.117,0.1175,0.1178,0.1215,0.1225,0.1122,0.1122,0.1122,0,0,0.083,0.084,0.0844,0.0862,0.0885,0.0902,0.0907,0.0941,0.0961,0.0973,0.1024,0.1044,0.1058,0.1105,0.1128,0.1123,0.12,0.1175,0.118,0.118,0.1217,0.1228,0.1237,0.1122,0.1122,0.1122,0,0,0.0836,0.0854,0.0863,0.0881,0.0916,0.0926,0.094,0.0972,0.0998,0.1034,0.105,0.109,0.1127,0.1152,0.1164,0.1201,0.1216,0.1214,0.1259,0.1296,0.1305,0.1314,0.1316,0.1324,0.1228,0.1228,0.1228,0,0.0838,0.0857,0.087,0.0889,0.0914,0.0939,0.0966,0.0985,0.1026,0.1063,0.1059,0.1127,0.1143,0.1201,0.1217,0.1216,0.1232,0.1243,0.1305,0.1313,0.1321,0.1321,0.133,0.1231,0.1231,0.123,0.123,0,0.085,0.0874,0.0891,0.092,0.0942,0.0979,0.1007,0.1046,0.1078,0.1102,0.1171,0.1187,0.1232,0.1243,0.1245,0.1315,0.1306,0.1302,0.1298,0.1336,0.1333,0.134,0.1236,0.1235,0.1234,0.1233,0,0,0.0831,0.0887,0.0896,0.0919,0.0973,0.0987,0.1043,0.1099,0.114,0.1184,0.124,0.1281,0.1308,0.1321,0.1338,0.1374,0.1433,0.1374,0.1375,0.1388,0.1507,0.1418,0.1417,0.146,0.1462,0.1464,0.148,0,0.0846,0.088,0.0915,0.0958,0.0981,0.1038,0.1077,0.1132,0.1182,0.1239,0.1285,0.1337,0.1332,0.1369,0.1405,0.1426,0.1458,0.1427,0.1457,0.1456,0.1384,0.1424,0.147,0.1486,0.1487,0.1488,0.1489,0,0.0847,0.087,0.0919,0.0979,0.1,0.1036,0.1124,0.1166,0.1256,0.1297,0.1371,0.1403,0.1472,0.145,0.1515,0.1506,0.1514,0.1519,0.152,0.1419,0.1382,0.144,0.1502,0.1501,0.15,0.1499,0.1499,0,0.0811,0.0874,0.0916,0.0938,0.1005,0.1061,0.1114,0.1201,0.1252,0.1356,0.1397,0.1475,0.1521,0.1552,0.156,0.1561,0.1606,0.1602,0.1523,0.1515,0.1562,0.1553,0.1645,0.1645,0.1645,0.1645,0.1645,0,0.0803,0.0832,0.0908,0.0926,0.0989,0.1048,0.1133,0.1198,0.1291,0.1348,0.1433,0.1472,0.1557,0.1589,0.1585,0.1566,0.1628,0.1533,0.1523,0.1585,0.1578,0.1566,0.1557,0.1645,0.1645,0.1645,0.1645,0,0.0757,0.0808,0.0855,0.0942,0.0976,0.1028,0.1149,0.1197,0.1289,0.1365,0.1406,0.1504,0.1549,0.1584,0.163,0.159,0.158,0.1555,0.1601,0.1591,0.1458,0.1452,0.1482,0.1479,0.1477,0.1475,0.1473,0,0.0736,0.0754,0.0857,0.0905,0.0961,0.1044,0.11,0.1198,0.1245,0.136,0.1382,0.1474,0.1522,0.1491,0.1549,0.1539,0.1525,0.1512,0.1504,0.1459,0.1446,0.1444,0.1441,0.1469,0.1469,0.1468,0.1467,0,0.07,0.0753,0.08,0.0887,0.0962,0.1017,0.1104,0.1115,0.1215,0.1305,0.1328,0.136,0.1405,0.1437,0.1442,0.1431,0.1519,0.1487,0.1492,0.1485,0.1444,0.1433,0.1433,0.1459,0.146,0.1461,0.1462,0,0.0693,0.0723,0.08,0.087,0.0949,0.097,0.1014,0.1055,0.1099,0.1207,0.1213,0.1289,0.1382,0.138,0.1375,0.1369,0.1364,0.1329,0.1342,0.1352,0.1306,0.1235,0.1183,0,0,0,0,0,0.0685,0.0714,0.0776,0.084,0.0904,0.0938,0.1007,0.104,0.1115,0.1099,0.1149,0.1177,0.1207,0.1253,0.1224,0.1337,0.1372,0.1301,0.1339,0.1414,0.1423,0.1383,0,0,0,0,0,0,0.0687,0.0744,0.076,0.079,0.0815,0.0861,0.0889,0.0935,0.0925,0.1013,0.1027,0.112,0.1157,0.1205,0.1204,0.122,0.1224,0.136,0.1357,0.1408,0.1417,0.1425,0.1387,0,0,0,0,0]},{"header":{"parameterUnit":"m.s-1","parameterCategory":2,"la1":30.2991,"la2":30.254,"lo1":-89.0895,"lo2":-89.0444,"dy":0.0017,"dx":0.0017,"nx":28,"ny":28,"refTime":"2024-04-17T03:00:00:Z","depth":"4","parameterNumber":3,"parameterNumberName":"V-component_of_CURRENTS"},"data":[0,0,0,0,0,0,0,0,0,0,0,0,0,0,0,0,0,0,0,0,0,0,0,0,0,0,0,0,0,0,0,0,0,0,0,0,0,0,0,0,0,0,0,0,0,0,0,0,0,0,0,0,0,0,0,0,0,0,-0.0064,-0.0064,0,-0.0085,-0.0085,-0.0086,-0.011,-0.011,-0.0111,-0.0111,-0.0169,-0.017,-0.0172,0,0,0,0,0,0,0,0,0,0,0,0,0,-0.0061,-0.0061,-0.0064,-0.0064,-0.0064,-0.0085,-0.0085,-0.0086,-0.011,-0.011,-0.0111,-0.0111,-0.0169,-0.017,-0.0172,0,0,0,0,0,0,0,0,0,0,0,0,0,-0.007,-0.0061,-0.0063,-0.0079,-0.008,-0.0085,-0.0085,-0.0086,-0.011,-0.011,-0.0111,-0.0111,-0.0168,-0.017,-0.0172,-0.0172,0,0,-0.0177,-0.0178,0,0,0,0,0,0,0,0,-0.007,-0.007,-0.0076,-0.0078,-0.0079,-0.0095,-0.0106,-0.0117,-0.011,-0.0098,-0.0111,-0.0112,-0.0148,-0.0151,-0.0153,-0.0175,-0.0177,-0.0178,-0.0179,-0.0179,-0.018,0,0,0,0,0,0,0,-0.0069,-0.0069,-0.0072,-0.0076,-0.0078,-0.0091,-0.0092,-0.0108,-0.012,-0.0099,-0.0101,-0.0104,-0.0149,-0.0151,-0.0155,-0.0178,-0.0178,-0.0179,-0.018,-0.0181,-0.0214,-0.0214,0,0,0,0,0,0,-0.0065,-0.0069,-0.0071,-0.0073,-0.0076,-0.009,-0.0092,-0.009,-0.0119,-0.0124,-0.0103,-0.0105,-0.0148,-0.0153,-0.0157,-0.0164,-0.0179,-0.0181,-0.0182,-0.0214,-0.0214,-0.0214,0,0,0,0,0,0,-0.0064,-0.0064,-0.007,-0.0072,-0.0073,-0.0089,-0.0087,-0.009,-0.0098,-0.0122,-0.0127,-0.0109,-0.0149,-0.0155,-0.0174,-0.0167,-0.0182,-0.0184,-0.0215,-0.0214,-0.0214,-0.0175,0,0,0,0,0,0,-0.0064,-0.0064,-0.0061,-0.0071,-0.0073,-0.0072,-0.0086,-0.009,-0.0098,-0.0101,-0.0128,-0.0134,-0.015,-0.0171,-0.0175,-0.0169,-0.0185,-0.0215,-0.0214,-0.0214,-0.0177,-0.0174,-0.0171,0,0,0,0,0,-0.0064,-0.0052,-0.006,-0.0061,-0.0068,-0.0071,-0.0073,-0.0087,-0.0098,-0.0097,-0.0119,-0.0133,-0.0171,-0.0172,-0.0178,-0.0172,-0.0215,-0.0214,-0.0214,-0.0178,-0.0174,-0.0171,0,0,0,0,0,0,-0.0046,-0.0053,-0.0063,-0.0053,-0.0063,-0.0075,-0.0075,-0.0087,-0.0102,-0.0108,-0.0133,-0.0139,-0.0153,-0.0168,-0.0168,-0.018,-0.0195,-0.0195,-0.0166,-0.0162,-0.0159,-0.0147,-0.0187,0,0,0,0,0,-0.0041,-0.0035,-0.0048,-0.0041,-0.0046,-0.0062,-0.0066,-0.0077,-0.0092,-0.0099,-0.012,-0.014,-0.0154,-0.0163,-0.018,-0.0187,-0.0219,-0.0186,-0.0183,-0.0181,-0.0175,-0.0219,-0.0219,-0.0212,-0.0212,-0.0212,0,0,-0.0032,-0.0036,-0.0033,-0.0038,-0.0047,-0.0041,-0.0066,-0.0071,-0.0065,-0.0103,-0.0108,-0.0134,-0.0154,-0.0162,-0.0169,-0.0174,-0.0203,-0.018,-0.0178,-0.0173,-0.0218,-0.0219,-0.022,-0.0212,-0.0212,-0.0212,0,0,-0.001,-0.0017,-0.0006,-0.001,-0.0022,-0.0028,-0.003,-0.0047,-0.0056,-0.0065,-0.009,-0.011,-0.0133,-0.0144,-0.0152,-0.0142,-0.0187,-0.0151,-0.0125,-0.0168,-0.0169,-0.017,-0.0224,-0.0231,-0.0148,-0.0148,-0.0148,0,-0.0,0.0014,-0.0004,0.0006,0.0008,-0.002,-0.0007,-0.0015,-0.0037,-0.0049,-0.0062,-0.0104,-0.0119,-0.0128,-0.0121,-0.0134,-0.0176,-0.0136,-0.0164,-0.0166,-0.0168,-0.0223,-0.0231,-0.0146,-0.0146,-0.0146,-0.0146,0,0.0028,0.0041,0.0047,0.0053,0.0051,0.0058,0.0044,0.0033,0.0014,-0.0003,-0.0029,-0.0057,-0.0084,-0.0088,-0.0098,-0.0117,-0.0148,-0.0158,-0.0173,-0.0167,-0.0225,-0.0234,-0.0143,-0.0144,-0.0144,-0.0145,0,0,0.0046,0.0065,0.0066,0.0074,0.0077,0.0074,0.0083,0.0073,0.0058,0.0037,0.0014,0.0003,-0.0033,-0.0044,-0.0069,-0.0096,-0.0142,-0.0128,-0.0131,-0.0181,-0.0256,-0.0216,-0.0222,-0.0165,-0.0166,-0.0167,-0.0296,0,0.0072,0.0105,0.0107,0.0133,0.0147,0.0128,0.0132,0.0115,0.0088,0.0055,0.0025,-0.0007,-0.0009,-0.0037,-0.0059,-0.0129,-0.0161,-0.0107,-0.0255,-0.0259,-0.0223,-0.0229,-0.0169,-0.0302,-0.0304,-0.0306,-0.0307,0,0.0096,0.0117,0.0153,0.0163,0.0164,0.0172,0.0152,0.015,0.0107,0.0078,0.0045,0.0004,-0.0032,-0.0043,-0.0141,-0.0113,-0.0174,-0.0224,-0.023,-0.0209,-0.0234,-0.0308,-0.0323,-0.0322,-0.0321,-0.032,-0.0319,0,0.0111,0.0143,0.0173,0.0181,0.0191,0.0191,0.0186,0.0153,0.0136,0.0084,0.0046,-0.0001,-0.0042,-0.0115,-0.0193,-0.0185,-0.0314,-0.0322,-0.0345,-0.0345,-0.036,-0.0358,-0.0392,-0.0392,-0.0391,-0.0391,-0.039,0,0.0139,0.0159,0.0179,0.0196,0.02,0.0203,0.0187,0.0167,0.0132,0.0109,0.0055,0.0021,-0.0062,-0.014,-0.0211,-0.0299,-0.0333,-0.0341,-0.0369,-0.0343,-0.0337,-0.0368,-0.0363,-0.0396,-0.0395,-0.0394,-0.0393,0,0.0149,0.0172,0.0196,0.0211,0.0211,0.0208,0.0191,0.017,0.0139,0.0104,0.0088,0.0019,-0.0066,-0.0158,-0.0283,-0.032,-0.0414,-0.0437,-0.0412,-0.0437,-0.0419,-0.0411,-0.0489,-0.0488,-0.0488,-0.0488,-0.0487,0,0.0159,0.0178,0.0196,0.0193,0.02,0.0196,0.0184,0.0171,0.0157,0.0112,0.0095,0.0014,-0.0034,-0.0187,-0.0276,-0.0419,-0.042,-0.0484,-0.0429,-0.0406,-0.0427,-0.0419,-0.0412,-0.0487,-0.0487,-0.0487,-0.0487,0,0.0163,0.0167,0.0176,0.0176,0.0171,0.0171,0.0166,0.0162,0.0153,0.0129,0.0109,0.004,-0.0053,-0.0153,-0.0261,-0.0359,-0.045,-0.048,-0.0481,-0.043,-0.0405,-0.0424,-0.0417,-0.0485,-0.0485,-0.0486,-0.0486,0,0.0144,0.0137,0.0139,0.0133,0.0137,0.0142,0.0147,0.015,0.0145,0.0131,0.0133,0.004,0.0002,-0.0125,-0.0227,-0.0312,-0.0327,-0.0351,-0.0359,-0.0362,-0.0266,-0.0212,-0.0257,0,0,0,0,0,0.0118,0.0095,0.0091,0.0089,0.0103,0.0109,0.0125,0.0136,0.0151,0.0152,0.0153,0.0084,-0.0035,-0.0099,-0.0175,-0.0244,-0.0369,-0.0338,-0.0407,-0.0478,-0.0479,-0.0382,0,0,0,0,0,0,0.0089,0.0077,0.0071,0.0057,0.006,0.0072,0.009,0.0107,0.0118,0.0136,0.0077,0.0071,-0.0053,0.0015,-0.0174,-0.0203,-0.0255,-0.0392,-0.0393,-0.0477,-0.0478,-0.0479,-0.038,0,0,0,0,0]}]]